Weather History for 78862 - March, 2014

Change the Weather History Date:

Sunday, March 23, 2014

  Actual Average Record
Temperature  
Mean Temperature 80 °F -  
Max Temperature 84 °F 83 °F - ()
Min Temperature 75 °F 74 °F - ()
Cooling Degree Days 14    
Growing Degree Days 30 (Base 50)    
Moisture  
Dew Point 68 °F    
Average Humidity 68    
Maximum Humidity 78    
Minimum Humidity 53    
Precipitation  
Precipitation 0.00 in - - ()
Sea Level Pressure  
Sea Level Pressure 30.04 in    
Wind  
Wind Speed 6 mph ()    
Max Wind Speed 10 mph    
Max Gust Speed -    
Visibility 8.9 miles    
Events      
T = Trace of Precipitation, MM = Missing Value Source: Averaged Metar Reports

Daily Weather History Graph

Daily Weather History Graph

Search for Another Location

Airport or City:

Trip Planner

Search our weather history database for the weather conditions in past years. The results will help you decide how hot, cold, wet, or windy it might be!

Date:

Astronomy

Mar. 23, 2014 Rise Set
Actual Time 6:08 AM AST 6:18 PM AST
Civil Twilight 5:47 AM AST 6:40 PM AST
Nautical Twilight 5:22 AM AST 7:05 PM AST
Astronomical Twilight 4:56 AM AST 7:30 PM AST
Moon No Moon Rise 11:26 AM AST (3/23)
Length of Visible Light 12h 52m
Length of Day
12h 09m
Waning Gibbous, 55% of the Moon is Illuminated
Mar 23
Waning Gibbous
Mar 23
Last Quarter
Mar 30
New
Apr 7
First Quarter
Apr 15
Full

Hourly Weather History & Observations

Time (AST) Temp. Heat Index Dew Point Humidity Pressure Visibility Wind Dir Wind Speed Gust Speed Precip Events Conditions
12:00 AM 77.0 °F - 68.0 °F 74% 30.09 in 6.2 mi East 6.9 mph - N/A   Partly Cloudy
1:00 AM 77.0 °F - 68.0 °F 74% 30.06 in 6.2 mi East 6.9 mph - N/A   Partly Cloudy
2:00 AM 77 °F - 68 °F 66% 30.06 in 17 mi East 6.9 mph - -   Haze
2:00 AM 77.0 °F - 68.0 °F 74% 30.04 in 6.2 mi East 6.9 mph - N/A   Partly Cloudy
3:00 AM 77.0 °F - 68.0 °F 74% 30.04 in 6.2 mi East 6.9 mph - N/A   Scattered Clouds
4:00 AM 77.0 °F - 68.0 °F 74% 30.04 in 6.2 mi East 6.9 mph - N/A   Partly Cloudy
5:00 AM 76 °F - 68 °F 69% 30.06 in 17 mi East 8.1 mph - -   Haze
5:00 AM 77.0 °F - 68.0 °F 74% 30.06 in 6.2 mi East 8.1 mph - N/A   Partly Cloudy
6:00 AM 77.0 °F - 66.2 °F 69% 30.06 in 6.2 mi East 5.8 mph - N/A   Partly Cloudy
7:00 AM 77.0 °F - 68.0 °F 74% 30.06 in 6.2 mi East 5.8 mph - N/A   Partly Cloudy
8:00 AM 79 °F - 68 °F 61% 30.09 in 17 mi East 6.9 mph - -   Haze
8:00 AM 78.8 °F - 68.0 °F 69% 30.09 in 6.2 mi East 6.9 mph - N/A   Partly Cloudy
9:00 AM 80.6 °F 83.2 °F 68.0 °F 65% 30.09 in 6.2 mi East 9.2 mph - N/A   Scattered Clouds
10:00 AM 82.4 °F 85.4 °F 68.0 °F 62% 30.09 in 6.2 mi East 9.2 mph - N/A   Scattered Clouds
11:00 AM 82 °F - 68 °F 55% 30.09 in 17 mi ESE 10.4 mph - -   Haze
11:00 AM 82.4 °F 85.4 °F 68.0 °F 62% 30.06 in 6.2 mi ESE 10.4 mph - N/A   Partly Cloudy
12:00 PM 82.4 °F 85.4 °F 68.0 °F 62% 30.06 in 6.2 mi East 10.4 mph - N/A   Partly Cloudy
1:00 PM 84.2 °F 87.3 °F 68.0 °F 58% 30.04 in 6.2 mi East 10.4 mph - N/A   Mostly Cloudy
2:00 PM 82 °F - 68 °F 53% 30.01 in 17 mi East 9.2 mph - -   Haze
2:00 PM 82.4 °F 85.4 °F 68.0 °F 62% 30.01 in 6.2 mi East 9.2 mph - N/A   Scattered Clouds
3:00 PM 80.6 °F 83.2 °F 68.0 °F 65% 29.98 in 6.2 mi East 8.1 mph - N/A   Scattered Clouds
4:00 PM 80.6 °F 83.2 °F 68.0 °F 65% 29.98 in 6.2 mi East 6.9 mph - N/A   Scattered Clouds
5:00 PM 80 °F - 67 °F 57% 29.99 in 17 mi East 5.8 mph - -   Haze
5:00 PM 80.6 °F 83.2 °F 68.0 °F 65% 29.98 in 6.2 mi East 5.8 mph - N/A   Partly Cloudy
6:00 PM 78.8 °F - 68.0 °F 69% 29.98 in 6.2 mi East 4.6 mph - N/A   Scattered Clouds
7:00 PM 77.0 °F - 66.2 °F 69% 30.01 in 6.2 mi ESE 6.9 mph - N/A   Scattered Clouds
8:00 PM 77 °F - 67 °F 64% 30.03 in 17 mi East 6.9 mph - -   Haze
8:00 PM 77.0 °F - 68.0 °F 74% 30.01 in 6.2 mi East 6.9 mph - N/A   Scattered Clouds
9:00 PM 77.0 °F - 68.0 °F 74% 30.04 in 6.2 mi Variable 2.3 mph - N/A   Partly Cloudy
10:00 PM 75.2 °F - 68.0 °F 78% 30.04 in 6.2 mi Variable 2.3 mph - N/A   Scattered Clouds
11:00 PM 75 °F - 68 °F 72% 30.04 in 17 mi 1.2 mph - -   Haze
11:00 PM 75.2 °F - 68.0 °F 78% 30.04 in 6.2 mi Variable 1.2 mph - N/A   Partly Cloudy